星链-30052 (STARLINK-30052 )

导读

STARLINK-30052是美国SpaceX公司星链(Starlink)低轨通信星座的一员,于2023年8月11日发射入轨。作为星链量产卫星,它采用平板设计搭载太阳电池阵,配备氪工质霍尔推进器,支持Ku/Ka波段通信与光学星间链路,具备自主避撞能力,设计寿命5-7年,旨在为全球提供覆盖广泛的宽带互联网服务,退役后会主动离轨坠入大气层焚毁。

Basic Information
目录编号:
57611
目录名称:
STARLINK-30052
国际标识:
2023-119K
轨道中心:
EARTH
卫星名称:
星链-30052
卫星全名:
星链-30052 (STARLINK-30052 )
卫星状态:
在轨 (已飞行1042 天)
发射日期:
2023-08-11 UTC
国别 :
美国 (US)
星等 :
--
Orbit Information
数据来源 国际轨道数据 AOE轨道数据
星历时间 2026-06-18T13:13:19+0800
10小时前
查看轨道信息
2026-06-16T07:00:00+0800
2天前
查看轨道信息
半长轴 6861.223km 6861.198km
偏心率 0.000183 0.0002131
轨道倾角 43.002° 43.003°
近地点辐角 281.796° 269.770°
升交点赤经 233.609° 246.371°
平近点角 78.269° 251.593°
近地点 481.83km 481.598km
远地点 484.342km 484.524km
周期 94.267分钟 94.267分钟
每日圈数 15.275679 15.275763
Detailed Information
固有亮度:
5
最大亮度:
0.3
卫星平台:
Starlink v2.0 mini
覆盖范围:
全球
运营商:
太空探索技术公司
运营商所在国:
美国
制造商(研发单位):
太空探索技术公司
制造商所在国:
美国
使用方式:
暂无
Satellite Introduction
星链(Starlink)计划是由太空探索技术公司(SpaceX)提出的一个巨型低轨卫星互联网星座项目,计划在2019年至2024年间在太空搭建由约1.2万颗卫星组成的“星链”网络,其中1584颗将部署在地球上空550千米处的近地轨道,并从2020年开始工作。该卫星仍在工作。
2D Orbit Map
3D Orbit Map
Orbit Altitude Analysis Chart
Orbit Inclination Analysis Chart
Orbit Comprehensive Analysis Chart
View Comprehensive Chart